EW5956 Weather Reports


time (UTC)temp
C
wind
direction
speed
KPH
gust
KPH
rain 1hr
cm
rain 24hr
cm
rain mn
cm
humidity
%
barometer
mb
20260508015105 15 277 4.8 4.8 0.00 0.00 0.00 74 1013.5
20260508014606 15 252 1.6 4.8 0.00 0.00 0.00 75 1013.5
20260508014105 14 246 1.6 3.2 0.00 0.00 0.00 75 1013.5
20260508012605 14 245 1.6 3.2 0.00 0.00 0.00 77 1013.8
20260508012105 14 246 1.6 3.2 0.00 0.00 0.00 77 1013.7
20260508011605 14 254 1.6 3.2 0.00 0.00 0.00 77 1013.9
20260508011105 14 273 1.6 3.2 0.00 0.00 0.00 78 1014.0
20260508010605 14 253 4.8 9.7 0.00 0.00 0.00 78 1013.9
20260508010112 14 288 3.2 4.8 0.00 0.00 0.00 78 1013.8
20260508005106 14 231 0.0 1.6 0.00 0.00 0.00 79 1013.9
20260508004605 14 227 1.6 3.2 0.00 0.00 0.00 77 1014.1
20260508003606 15 257 1.6 3.2 0.00 0.00 0.00 76 1014.1
20260508003106 15 218 1.6 4.8 0.00 0.00 0.00 76 1014.1
20260508002605 15 209 3.2 9.7 0.00 0.00 0.00 76 1014.1
20260508002105 14 224 1.6 8.0 0.00 0.00 0.00 77 1014.2
20260508001607 14 232 1.6 3.2 0.00 0.00 0.00 79 1014.0
20260508001105 15 217 1.6 3.2 0.00 0.00 0.00 77 1014.2
20260508000606 15 225 1.6 3.2 0.00 0.00 0.00 69 1014.2
20260507235105 15 243 1.6 8.0 0.00 0.00 0.00 69 1014.2
20260507234605 15 211 1.6 3.2 0.00 0.00 0.00 67 1014.4
20260507234105 16 237 0.0 4.8 0.00 0.00 0.00 67 1014.2
20260507233605 15 232 1.6 4.8 0.00 0.00 0.00 68 1014.4
20260507233105 16 233 1.6 3.2 0.00 0.00 0.00 67 1014.3
20260507232605 16 225 1.6 3.2 0.00 0.00 0.00 66 1014.6
20260507231606 16 157 3.2 8.0 0.00 0.00 0.00 66 1014.3
20260507231105 16 95 4.8 8.0 0.00 0.00 0.00 66 1014.4
20260507225605 16 82 4.8 11.3 0.00 0.00 0.00 65 1014.9
20260507225107 16 71 3.2 11.3 0.00 0.00 0.00 66 1014.9
20260507224606 16 107 4.8 9.7 0.00 0.00 0.00 66 1014.8
20260507224106 16 128 3.2 12.9 0.00 0.00 0.00 67 1014.9
20260507223107 16 191 3.2 11.3 0.00 0.00 0.00 67 1014.6
20260507222605 16 151 4.8 9.7 0.00 0.00 0.00 67 1014.9
20260507221605 16 113 6.4 11.3 0.00 0.00 0.00 67 1014.9
20260507220605 15 134 3.2 4.8 0.00 0.00 0.00 71 1014.6
20260507220112 15 201 3.2 4.8 0.00 0.00 0.00 72 1014.9
20260507215605 15 217 0.0 0.0 0.00 0.00 0.00 74 1014.6
20260507215105 15 216 0.0 1.6 0.00 0.00 0.00 73 1014.8
20260507214606 15 220 1.6 1.6 0.00 0.00 0.00 73 1014.9
20260507214105 15 225 1.6 1.6 0.00 0.00 0.00 72 1014.9
20260507213607 15 228 0.0 3.2 0.00 0.00 0.00 71 1014.9
20260507212607 15 249 1.6 1.6 0.00 0.00 0.00 72 1014.9
20260507212106 15 218 1.6 1.6 0.00 0.00 0.00 72 1014.6
20260507211606 15 215 1.6 3.2 0.00 0.00 0.00 72 1014.8
20260507211106 15 213 1.6 3.2 0.00 0.00 0.00 72 1014.9
20260507210605 15 224 0.0 1.6 0.00 0.00 0.00 72 1014.9
20260507205606 16 226 0.0 3.2 0.00 0.00 0.00 70 1014.9
20260507205105 15 210 0.0 3.2 0.00 0.00 0.00 71 1014.9
20260507204605 15 233 1.6 1.6 0.00 0.00 0.00 70 1015.0
20260507204105 16 238 0.0 3.2 0.00 0.00 0.00 70 1015.1
20260507203605 16 173 1.6 3.2 0.00 0.00 0.00 70 1014.9
20260507203105 16 226 0.0 1.6 0.00 0.00 0.00 70 1015.1
20260507202605 16 222 0.0 1.6 0.00 0.00 0.00 70 1015.2
20260507202106 16 315 3.2 3.2 0.00 0.00 0.00 69 1015.0
20260507201605 16 271 0.0 1.6 0.00 0.00 0.00 70 1014.9
20260507201107 16 222 1.6 3.2 0.00 0.00 0.00 69 1015.1
20260507200605 16 145 1.6 4.8 0.00 0.00 0.00 69 1015.2
20260507200112 16 15 3.2 4.8 0.00 0.00 0.00 69 1014.9
20260507195606 16 216 1.6 8.0 0.00 0.00 0.00 70 1015.1
20260507195105 16 141 1.6 8.0 0.00 0.00 0.00 69 1015.2
20260507194605 16 139 4.8 14.5 0.00 0.00 0.00 69 1015.0
20260507194105 16 96 9.7 12.9 0.00 0.00 0.00 70 1015.2
20260507193605 16 169 3.2 9.7 0.00 0.00 0.00 70 1014.9
20260507193105 16 170 3.2 9.7 0.00 0.00 0.00 71 1014.9
20260507192605 16 76 4.8 9.7 0.00 0.00 0.00 71 1014.9
20260507192105 16 137 3.2 4.8 0.00 0.00 0.00 71 1014.9
20260507191606 16 192 3.2 4.8 0.00 0.00 0.00 71 1014.9
20260507191106 16 185 3.2 11.3 0.00 0.00 0.00 71 1014.6
20260507190605 16 102 9.7 12.9 0.00 0.00 0.00 71 1014.7
20260507190112 16 138 4.8 11.3 0.00 0.00 0.00 72 1014.6
20260507185605 16 89 6.4 11.3 0.00 0.00 0.00 72 1014.6
20260507185106 16 67 6.4 9.7 0.00 0.00 0.00 72 1014.6
20260507184605 16 104 6.4 11.3 0.00 0.00 0.00 72 1014.2
20260507184105 16 129 3.2 9.7 0.00 0.00 0.00 72 1014.2
20260507183105 16 96 8.0 12.9 0.00 0.00 0.00 72 1014.0
20260507182605 16 147 4.8 14.5 0.00 0.00 0.00 72 1013.8
20260507182105 16 66 8.0 11.3 0.00 0.00 0.00 72 1013.7
20260507181605 16 101 4.8 12.9 0.00 0.00 0.00 72 1013.7
20260507181105 17 88 8.0 12.9 0.00 0.00 0.00 72 1013.9
20260507180605 17 124 9.7 12.9 0.00 0.00 0.00 72 1013.9
20260507175605 17 86 6.4 11.3 0.00 0.00 0.00 72 1013.9
20260507175107 17 91 9.7 11.3 0.00 0.00 0.00 72 1013.5
20260507174606 17 103 4.8 9.7 0.00 0.00 0.00 72 1013.5
20260507174105 17 101 9.7 19.3 0.00 0.00 0.00 72 1013.5
20260507173105 17 108 6.4 14.5 0.00 0.00 0.00 71 1013.5
20260507172605 17 109 4.8 9.7 0.00 0.00 0.00 71 1013.5
20260507171604 18 133 11.3 14.5 0.00 0.00 0.00 71 1013.2
20260507171105 18 170 4.8 9.7 0.00 0.00 0.00 71 1013.2
20260507170607 18 170 4.8 9.7 0.00 0.00 0.00 71 1013.2
20260507170111 18 127 8.0 11.3 0.00 0.00 0.00 71 1013.5
20260507165605 18 99 6.4 14.5 0.00 0.00 0.00 71 1013.2
20260507165105 18 152 11.3 14.5 0.00 0.00 0.00 71 1013.2
20260507164606 18 107 8.0 14.5 0.00 0.00 0.00 72 1013.2
20260507164105 18 103 4.8 8.0 0.00 0.00 0.00 72 1013.0
20260507163605 18 114 8.0 12.9 0.00 0.00 0.00 72 1013.2
20260507163105 18 113 6.4 16.1 0.00 0.00 0.00 72 1013.2
20260507162605 18 105 16.1 25.7 0.00 0.00 0.00 72 1013.2
20260507162105 18 131 9.7 20.9 0.00 0.00 0.00 72 1013.5
20260507161605 18 129 9.7 20.9 0.00 0.00 0.00 72 1013.2
20260507161107 18 100 11.3 22.5 0.00 0.00 0.00 72 1013.1
20260507160604 18 92 14.5 29.0 0.00 0.00 0.00 70 1013.2
20260507155604 18 139 9.7 22.5 0.00 0.00 0.00 73 1013.4
20260507155105 18 113 6.4 16.1 0.00 0.00 0.00 74 1013.4
20260507154605 18 136 8.0 20.9 0.00 0.00 0.00 74 1013.4
20260507154105 18 127 12.9 20.9 0.00 0.00 0.00 74 1013.2
20260507153605 18 132 9.7 16.1 0.00 0.00 0.00 74 1013.3
20260507152605 17 138 11.3 22.5 0.00 0.00 0.00 75 1013.5
20260507152105 17 162 8.0 12.9 0.00 0.00 0.00 75 1013.5
20260507151105 17 122 11.3 24.1 0.00 0.00 0.00 75 1013.5
20260507150605 17 107 16.1 25.7 0.00 0.00 0.00 75 1013.5
20260507150113 17 153 9.7 24.1 0.00 0.00 0.00 75 1013.5
20260507145605 17 96 14.5 24.1 0.00 0.00 0.00 74 1013.5
20260507145105 17 116 11.3 20.9 0.00 0.00 0.00 75 1013.6
20260507144605 17 145 8.0 22.5 0.00 0.00 0.00 75 1013.5
20260507144105 17 128 16.1 25.7 0.00 0.00 0.00 75 1013.5
20260507143605 17 101 11.3 20.9 0.00 0.00 0.00 74 1013.5
20260507142105 17 93 19.3 25.7 0.00 0.00 0.00 74 1013.8
20260507141605 17 119 19.3 24.1 0.00 0.00 0.00 74 1013.5
20260507141105 17 104 9.7 22.5 0.00 0.00 0.00 74 1013.8
20260507140606 17 144 9.7 22.5 0.00 0.00 0.00 75 1013.5
20260507140112 17 100 11.3 20.9 0.00 0.00 0.00 75 1013.8
20260507135605 17 172 8.0 29.0 0.00 0.00 0.00 75 1013.6
20260507135105 17 113 17.7 29.0 0.00 0.00 0.00 76 1013.9
20260507134605 17 95 12.9 25.7 0.00 0.00 0.00 76 1013.8
20260507134104 17 107 20.9 25.7 0.00 0.00 0.00 77 1013.5
20260507133605 17 128 12.9 22.5 0.00 0.00 0.00 77 1013.5
20260507133105 17 119 9.7 20.9 0.00 0.00 0.00 78 1013.8
20260507132605 17 135 9.7 25.7 0.00 0.00 0.00 79 1013.7
20260507132105 17 119 12.9 25.7 0.00 0.00 0.00 79 1013.7
20260507130604 17 90 14.5 19.3 0.00 0.00 0.00 79 1013.9
20260507130112 17 127 8.0 27.4 0.00 0.00 0.00 80 1013.7
20260507125605 17 100 16.1 29.0 0.00 0.00 0.00 79 1013.6
20260507125105 18 117 11.3 29.0 0.00 0.00 0.00 79 1013.9
20260507124605 18 103 1.6 22.5 0.00 0.00 0.00 79 1013.8
20260507124105 17 111 14.5 22.5 0.00 0.00 0.00 79 1013.9
20260507123105 17 93 16.1 24.1 0.00 0.00 0.00 80 1013.6
20260507122604 17 146 8.0 19.3 0.00 0.00 0.00 80 1013.8
20260507122105 17 128 14.5 22.5 0.00 0.00 0.00 80 1013.9
20260507121604 17 148 11.3 19.3 0.00 0.00 0.00 80 1013.9
20260507121105 17 111 11.3 22.5 0.00 0.00 0.00 81 1013.9
20260507120605 17 103 8.0 16.1 0.00 0.00 0.00 80 1014.1
20260507115604 17 146 6.4 16.1 0.00 0.00 0.00 81 1014.2
20260507115105 17 129 6.4 12.9 0.00 0.00 0.00 80 1013.9
20260507114604 17 126 8.0 12.9 0.00 0.00 0.00 81 1013.9
20260507114105 17 128 8.0 14.5 0.00 0.00 0.00 81 1014.1
20260507113604 17 141 6.4 20.9 0.00 0.00 0.00 81 1014.1
20260507112605 18 129 8.0 14.5 0.00 0.00 0.00 79 1014.0
20260507112105 17 136 3.2 11.3 0.00 0.00 0.00 79 1013.9
20260507111605 17 167 11.3 20.9 0.00 0.00 0.00 79 1013.9
20260507111105 17 200 3.2 19.3 0.00 0.00 0.00 80 1013.9
20260507110605 17 150 9.7 19.3 0.00 0.00 0.00 80 1014.1
20260507110111 17 110 11.3 19.3 0.00 0.00 0.00 78 1013.9
20260507105604 18 173 1.6 9.7 0.00 0.00 0.00 77 1014.2
20260507105104 18 147 4.8 12.9 0.00 0.00 0.00 76 1014.2
20260507104604 18 191 3.2 8.0 0.00 0.00 0.00 76 1014.1
20260507104104 18 202 4.8 8.0 0.00 0.00 0.00 76 1014.0
20260507103104 17 121 8.0 19.3 0.00 0.00 0.00 77 1014.0
20260507102605 17 125 8.0 16.1 0.00 0.00 0.00 78 1014.2
20260507102105 17 40 8.0 16.1 0.00 0.00 0.00 77 1014.2
20260507101605 17 94 11.3 19.3 0.00 0.00 0.00 77 1014.2
20260507101104 17 129 4.8 14.5 0.00 0.00 0.00 77 1014.2
20260507100605 17 166 8.0 12.9 0.00 0.00 0.00 78 1014.2
20260507100111 17 126 4.8 14.5 0.00 0.00 0.00 77 1014.2
20260507095604 17 156 4.8 24.1 0.00 0.00 0.00 77 1014.2
20260507094105 17 117 9.7 29.0 0.00 0.00 0.00 74 1014.0
20260507093605 18 71 8.0 24.1 0.00 0.00 0.00 75 1013.9
20260507092104 17 92 17.7 27.4 0.00 0.00 0.00 76 1013.6
20260507091605 17 113 11.3 22.5 0.00 0.00 0.00 77 1013.5
20260507091105 16 303 12.9 29.0 0.00 0.00 0.00 77 1013.4
20260507090604 16 117 9.7 35.4 0.00 0.00 0.00 77 1013.5
20260507085105 16 100 17.7 24.1 0.00 0.00 0.00 76 1013.4
20260507084605 16 92 22.5 38.6 0.00 0.00 0.00 76 1013.3
20260507084105 16 112 17.7 27.4 0.00 0.00 0.00 77 1013.5
20260507083604 16 79 12.9 33.8 0.00 0.00 0.00 77 1013.5
20260507083105 16 97 16.1 22.5 0.00 0.00 0.00 78 1013.2
20260507082605 16 116 20.9 38.6 0.00 0.00 0.00 79 1013.5
20260507082104 16 136 14.5 32.2 0.00 0.00 0.00 78 1013.2
20260507081605 16 80 17.7 33.8 0.00 0.00 0.00 79 1013.0
20260507075605 16 83 20.9 32.2 0.00 0.00 0.00 80 1013.2
20260507075105 16 93 25.7 37.0 0.00 0.00 0.00 80 1013.1
20260507074606 16 58 11.3 27.4 0.00 0.00 0.00 80 1013.2
20260507074105 15 117 11.3 24.1 0.00 0.00 0.00 80 1013.2
20260507073606 15 101 19.3 35.4 0.00 0.00 0.00 80 1013.1
20260507073105 15 120 9.7 25.7 0.00 0.00 0.00 81 1013.0
20260507072605 15 92 11.3 22.5 0.00 0.00 0.00 81 1013.1
20260507072105 15 116 12.9 37.0 0.00 0.00 0.00 81 1013.2
20260507071604 15 117 22.5 32.2 0.00 0.00 0.00 81 1013.1
20260507071105 15 85 6.4 22.5 0.00 0.00 0.00 82 1013.4
20260507070605 15 191 9.7 35.4 0.00 0.00 0.00 82 1012.9
20260507070115 15 115 20.9 37.0 0.00 0.00 0.00 82 1013.0
20260507065606 15 106 25.7 37.0 0.00 0.00 0.00 82 1012.9
20260507064605 15 101 19.3 51.5 0.00 0.00 0.00 82 1012.9
20260507064106 15 104 20.9 51.5 0.00 0.00 0.00 82 1013.2
20260507063605 15 120 19.3 37.0 0.00 0.00 0.00 82 1013.2
20260507063105 16 66 19.3 41.8 0.00 0.00 0.00 82 1013.1
20260507062104 16 111 17.7 38.6 0.00 0.00 0.00 81 1012.9
20260507061105 16 94 20.9 49.9 0.00 0.00 0.00 79 1013.2
20260507060605 16 102 19.3 49.9 0.00 0.00 0.00 79 1013.2
20260507055605 16 203 6.4 22.5 0.00 0.00 0.00 80 1013.2
20260507055105 16 86 20.9 29.0 0.00 0.00 0.00 80 1013.4
20260507054105 15 112 9.7 20.9 0.00 0.00 0.00 81 1013.4
20260507053605 15 70 9.7 14.5 0.00 0.00 0.00 81 1013.5
20260507053105 15 55 11.3 25.7 0.00 0.00 0.00 80 1013.5
20260507052606 15 92 8.0 16.1 0.00 0.00 0.00 80 1013.5
20260507052104 15 120 9.7 20.9 0.00 0.00 0.00 80 1013.5
20260507051605 16 141 8.0 19.3 0.00 0.00 0.00 80 1013.5
20260507051105 15 92 11.3 20.9 0.00 0.00 0.00 79 1013.2
20260507050113 15 144 9.7 16.1 0.00 0.00 0.00 78 1013.4
20260507045606 15 129 6.4 16.1 0.00 0.00 0.00 79 1013.5
20260507045105 15 70 11.3 27.4 0.00 0.00 0.00 79 1013.2
20260507044605 16 119 6.4 19.3 0.00 0.00 0.00 77 1013.2
20260507044106 16 104 6.4 19.3 0.00 0.00 0.00 74 1012.9
20260507043608 16 37 8.0 12.9 0.00 0.00 0.00 72 1013.1
20260507043105 16 316 6.4 9.7 0.00 0.00 0.00 71 1013.0
20260507042105 16 191 1.6 8.0 0.00 0.00 0.00 70 1012.9
20260507041605 16 105 4.8 14.5 0.00 0.00 0.00 69 1012.6
20260507041105 17 185 3.2 12.9 0.00 0.00 0.00 70 1012.9
20260507040605 17 161 4.8 16.1 0.00 0.00 0.00 70 1012.9
20260507040114 17 214 4.8 20.9 0.00 0.00 0.00 70 1012.6
20260507035105 17 135 11.3 25.7 0.00 0.00 0.00 71 1011.9
20260507034605 17 115 17.7 27.4 0.00 0.00 0.00 70 1011.6
20260507034105 17 125 17.7 38.6 0.00 0.00 0.00 70 1011.3
20260507033605 17 126 17.7 48.3 0.00 0.00 0.00 70 1011.2
20260507033105 17 132 12.9 46.7 0.00 0.00 0.00 70 1011.2
20260507032106 17 116 19.3 33.8 0.00 0.00 0.00 70 1011.2
20260507031105 17 116 20.9 35.4 0.00 0.00 0.00 70 1011.2
20260507030606 17 114 27.4 45.1 0.00 0.00 0.00 70 1011.2
20260507030119 17 119 25.7 40.2 0.00 0.00 0.00 70 1011.2
20260507025606 17 91 19.3 37.0 0.00 0.00 0.00 70 1011.0
20260507024605 17 127 22.5 41.8 0.00 0.00 0.00 70 1011.4
20260507023605 17 123 16.1 40.2 0.00 0.00 0.00 70 1011.2
20260507023105 17 88 29.0 41.8 0.00 0.00 0.00 70 1011.2
20260507022605 17 128 30.6 45.1 0.00 0.00 0.00 71 1011.2
20260507022105 17 126 27.4 38.6 0.00 0.00 0.00 71 1011.2
20260507021605 17 79 29.0 38.6 0.00 0.00 0.00 71 1011.2
20260507021105 17 107 19.3 38.6 0.00 0.00 0.00 70 1011.2
20260507020605 17 118 19.3 37.0 0.00 0.00 0.00 70 1011.5
20260507015606 17 103 24.1 40.2 0.00 0.00 0.00 70 1011.2